{"data":{"norad_id":60014,"intl_designator":"2024-110C","name":"2024-110C","alt_names":[],"object_type":"PAYLOAD","status":"ACTIVE","operator":null,"country":"PRC","launch_date":"2024-06-06","launch_site_code":"JSC","launch_vehicle":null,"mission":null,"orbit_class":"UNKNOWN","rcs_meters":null,"size_class":null,"mass_kg":null,"dimensions":null,"purposes":[],"wikipedia_slug":null,"has_3d_model":false,"image_url":null,"decayed_at":null,"tle_current":{"epoch":"2026-05-25T04:49:03.904032Z","epoch_age_seconds":54805,"freshness":"FRESH","line1":"1 60014U 24110C   26145.20073963  .00001005  00000+0  89463-4 0  9996","line2":"2 60014  97.5446 221.2251 0011022 221.1183 138.9210 14.98169922 98368","mean_motion":14.98169922,"eccentricity":0.0011022,"inclination_deg":97.5446,"raan_deg":221.2251,"arg_perigee_deg":221.1183,"mean_anomaly_deg":138.921,"bstar":8.9463e-5,"rev_number":9836,"period_min":96.117268065137,"perigee_km":564.88991475887,"apogee_km":580.21201130458,"semimajor_km":6950.6879630317,"source":"CELESTRAK","updated_at":"2026-05-25T13:38:01.785266Z"}}}